Wind_Speed
28 28 26 23 22 19 18 19 21 25 25 29 37 42 38 29 29 23 17 13 14 15 11 10 14 13 12 15 14 20 24 12 10 9 12 15 18 14 15 11 6 8 4 11
28 27 27 24 23 19 17 19 22 23 25 32 36 34 35 33 24 31 24 16 18 14 13 9 14 16 14 11 11 11 17 10 6 4 10 14 16 19 20 20 18 13 7 7
26 25 26 26 23 19 18 17 20 24 27 31 25 22 24 30 31 34 35 19 19 17 16 15 8 17 15 14 12 14 13 12 11 10 3 4 9 11 15 19 10 12 18 19
26 25 24 25 24 21 19 19 21 22 21 29 28 20 20 27 29 31 29 27 17 16 15 17 19 14 19 17 15 18 17 12 17 17 13 8 10 13 13 15 15 13 15 16
26 25 25 25 25 24 22 21 22 26 26 17 29 27 26 24 28 26 30 32 19 18 18 17 14 19 12 15 17 21 20 10 13 12 13 14 15 15 17 17 18 21 21 24
26 25 24 24 25 25 26 23 23 24 26 21 17 21 25 20 28 31 24 28 28 22 19 18 17 15 16 16 17 19 23 22 12 6 12 14 15 22 22 19 24 21 16 12
27 25 24 23 26 26 24 23 24 26 26 24 18 13 18 26 22 29 22 30 23 24 19 19 18 17 14 14 20 18 20 21 18 9 7 4 14 16 14 13 12 11 10 12
29 27 25 24 26 28 25 22 24 27 29 28 27 28 19 18 25 27 29 29 25 28 20 17 21 21 19 20 20 21 21 20 13 7 10 14 16 18 15 18 12 13 10 10
28 27 27 25 25 28 25 21 23 29 32 28 28 17 24 20 18 27 36 27 26 35 29 20 21 13 11 12 13 24 22 21 15 12 5 5 6 7 6 3 8 10 8 7
28 28 27 27 26 28 25 22 22 27 35 35 27 30 18 23 22 22 32 32 28 32 34 20 17 20 17 11 18 22 25 25 24 17 11 11 16 17 11 6 6 10 6 6
31 30 29 28 27 28 26 25 23 28 35 37 35 29 27 25 27 26 20 23 37 32 38 15 20 13 21 17 15 23 27 23 22 16 11 12 14 14 14 11 7 8 7 9
31 31 31 29 28 28 30 27 27 27 30 31 39 37 31 25 21 30 28 30 26 33 34 27 17 15 21 20 16 22 17 18 19 16 9 11 7 10 11 11 9 10 9 9
31 32 31 29 29 29 32 30 27 29 31 34 36 39 42 34 21 24 27 34 34 36 43 32 28 21 23 27 23 21 24 20 21 16 18 15 12 13 13 13 12 10 10 10
31 30 29 29 30 29 35 34 32 29 27 34 35 32 42 41 29 22 28 30 33 31 29 35 25 23 24 24 20 26 25 25 23 22 19 16 16 15 18 16 13 12 10 9
29 29 30 30 29 32 38 32 27 28 26 20 27 37 38 39 26 21 29 27 20 41 35 37 36 29 19 26 26 30 23 26 24 20 15 15 17 17 18 17 14 13 11 9
28 28 27 28 29 32 29 27 29 28 25 25 27 27 31 39 29 27 29 27 26 27 40 39 35 34 22 18 28 26 27 21 19 18 17 17 15 18 19 20 16 14 11 10
26 25 25 25 27 30 30 28 26 22 20 20 17 24 21 43 32 24 25 30 28 31 27 42 36 37 37 32 25 19 26 26 26 23 19 14 14 17 19 19 18 16 14 12
24 23 23 24 22 28 31 25 17 16 19 19 12 12 15 38 35 33 26 24 35 34 39 35 38 44 44 48 40 29 26 19 20 21 17 16 16 17 20 20 18 16 14 13
24 24 25 27 30 24 19 21 20 19 20 22 21 17 14 19 28 31 31 31 34 34 36 40 38 48 37 36 34 38 37 33 25 19 20 20 19 20 20 21 19 17 15 14
27 30 28 29 29 22 26 22 22 24 28 25 26 27 25 17 28 24 31 33 35 34 35 30 45 52 46 34 31 28 31 31 24 23 21 19 18 20 21 20 18 16 15 15
34 29 28 29 32 28 25 19 21 16 18 35 39 29 31 32 19 16 26 12 29 15 22 30 24 43 44 38 44 33 27 25 20 19 19 15 14 12 17 20 20 18 17 17
35 37 27 28 29 19 20 18 23 15 22 15 21 37 34 29 34 24 9 13 19 11 26 23 29 47 35 26 35 39 38 37 28 24 22 19 18 20 19 17 18 19 18 17
43 37 30 24 22 16 18 20 21 18 16 22 15 13 22 28 30 27 14 9 9 11 18 19 33 18 22 22 20 28 32 34 36 33 29 27 23 25 23 20 18 18 18 17
41 27 18 21 14 14 12 19 27 28 19 12 15 21 23 21 25 20 11 11 8 15 15 31 19 16 16 18 21 21 25 32 34 35 33 27 24 27 25 22 18 16 17 16
35 26 14 18 13 20 23 21 25 21 21 32 14 22 30 20 17 21 10 9 8 10 15 7 29 23 20 13 14 23 27 28 33 34 32 28 27 25 23 22 20 19 17 15
17 13 13 21 26 24 26 22 20 15 23 26 27 17 23 19 15 15 12 10 7 9 15 22 20 25 28 21 20 17 19 21 26 29 30 27 25 24 22 18 18 18 16 15
23 23 25 22 26 23 21 23 12 15 20 27 23 16 21 8 11 16 10 8 13 15 14 8 14 19 23 26 27 24 23 23 27 29 29 28 26 23 21 19 19 18 16 13
Wind_Direction
251 252 251 249 247 245 237 228 228 219 219 216 220 220 216 220 217 209 230 227 226 234 233 228 214 215 207 213 213 213 218 216 219 227 242 234 234 225 227 231 228 228 248 263
246 249 252 251 248 242 236 226 226 223 219 216 222 223 222 218 210 220 226 232 231 233 226 219 217 216 227 216 204 206 212 211 198 232 245 233 228 236 237 234 237 236 239 257
244 244 247 252 249 244 237 225 223 222 217 217 215 217 220 221 220 222 218 224 226 234 232 225 235 224 220 216 211 202 203 213 211 230 214 181 225 242 245 233 223 240 239 267
242 242 242 246 249 241 236 229 220 213 221 220 220 212 217 218 220 231 232 219 209 229 234 231 228 232 219 220 212 203 200 223 223 230 248 255 271 266 256 245 246 238 263 263
241 239 238 240 241 240 234 230 219 217 218 214 221 215 217 215 209 220 229 227 206 223 227 232 236 231 224 217 214 207 207 223 218 229 236 260 270 261 253 251 246 254 265 274
242 239 236 236 237 236 229 227 229 224 220 219 219 225 223 221 218 230 227 240 207 214 218 234 236 236 230 225 224 220 215 225 226 228 246 269 277 271 251 249 260 264 260 262
242 238 233 232 232 232 232 223 223 218 215 218 221 216 223 226 213 218 235 240 238 207 203 231 228 222 235 229 227 225 223 223 227 240 246 239 267 268 254 240 257 245 250 250
240 238 234 230 229 227 226 220 216 220 224 217 219 225 213 218 223 223 227 225 224 210 207 214 227 229 234 231 226 220 219 220 223 216 236 269 270 258 255 267 260 250 237 245
236 235 233 230 227 227 222 220 218 220 221 228 213 215 219 211 215 218 224 221 225 229 208 208 213 206 200 213 213 217 216 217 221 223 208 242 260 254 227 244 240 240 233 205
234 231 232 229 228 228 220 216 215 221 224 217 217 217 208 208 212 221 228 235 219 205 192 216 210 214 199 200 202 206 208 215 221 221 235 259 251 255 251 235 242 181 196 230
232 230 228 230 229 226 218 213 214 223 231 225 221 214 211 210 209 214 221 221 227 210 192 205 206 217 205 206 209 210 215 205 216 217 221 254 256 239 223 227 207 207 249 270
228 227 226 228 227 223 214 215 211 216 235 235 222 218 209 208 201 209 214 223 226 212 194 207 217 222 208 205 213 212 206 206 206 211 229 231 220 214 210 207 229 254 261 275
227 228 228 225 223 221 213 216 214 222 234 240 226 217 215 214 206 203 211 216 226 237 219 209 209 228 221 214 215 221 223 224 218 224 238 237 230 236 230 247 254 250 266 276
223 221 218 218 218 219 210 215 219 222 234 249 237 227 226 228 229 224 209 194 210 222 221 204 200 224 222 226 225 228 228 225 226 227 240 235 236 243 244 245 241 253 259 271
212 210 210 213 214 212 212 214 220 226 225 246 252 230 227 223 230 234 219 208 208 203 196 206 212 219 222 226 227 228 228 227 221 238 245 238 247 243 236 230 241 242 255 264
206 207 209 211 213 215 205 216 220 225 232 252 267 236 231 217 221 216 221 220 222 223 211 202 209 212 217 232 234 236 237 233 227 232 247 254 255 248 231 225 232 237 248 255
204 203 206 208 202 199 195 207 215 219 227 241 266 256 235 214 220 223 225 220 224 222 240 220 216 212 216 233 234 236 236 233 237 244 244 245 256 241 229 223 226 234 242 256
195 194 192 182 184 192 206 206 210 214 234 240 239 227 220 218 224 229 225 228 220 228 229 230 224 219 224 232 230 228 233 224 215 213 240 250 241 232 225 223 227 232 245 255
182 178 179 193 192 201 202 200 202 213 216 214 222 214 205 213 218 231 230 233 222 225 235 231 232 223 224 226 231 224 232 235 233 250 251 240 234 231 226 227 227 231 245 252
178 179 190 195 188 194 193 196 208 221 217 212 231 222 209 201 201 202 213 206 212 220 225 224 232 233 229 225 224 225 229 233 237 241 227 230 231 235 230 220 222 228 239 246
184 191 182 178 187 192 192 196 202 218 234 232 227 221 219 211 209 208 213 187 203 202 201 217 232 238 234 231 223 220 228 239 234 224 205 213 221 237 233 225 227 238 245 246
185 190 165 167 174 182 194 192 199 221 224 230 233 231 224 222 231 241 255 204 177 198 210 218 238 241 243 242 232 229 231 233 230 227 223 227 227 211 212 218 230 240 242 244
184 186 187 184 187 191 198 197 201 214 221 221 238 207 201 213 227 235 258 219 171 184 183 219 233 239 257 245 218 211 218 223 227 232 233 229 225 215 216 222 232 230 235 238
182 175 174 186 192 199 203 214 226 237 236 241 230 200 189 197 211 227 236 196 167 179 219 232 244 233 217 216 200 204 204 211 217 224 227 226 225 216 217 216 219 232 233 237
186 192 198 195 198 207 219 235 232 226 224 233 201 208 206 220 215 226 209 178 197 217 226 203 210 198 211 196 192 203 211 213 214 214 218 217 214 213 216 220 226 231 231 238
187 187 181 198 206 215 222 235 237 236 233 225 243 203 205 220 197 239 185 194 193 208 192 183 194 201 218 220 199 181 184 194 205 209 210 209 211 212 215 223 229 224 228 232
206 206 204 212 222 232 234 223 215 221 213 216 223 199 198 232 183 201 195 156 125 91 85 152 198 205 210 200 197 203 206 198 196 202 200 199 203 206 213 223 223 224 224 225
Height
3071 3074 3077 3080 3084 3088 3093 3096 3100 3102 3104 3109 3108 3110 3115 3122 3129 3134 3137 3139 3141 3143 3145 3146 3148 3148 3148 3149 3152 3155 3157 3160 3162 3164 3163 3163 3165 3166 3169 3170 3170 3169 3169 3167
3065 3067 3071 3073 3078 3083 3087 3091 3093 3096 3099 3099 3101 3106 3111 3118 3125 3130 3132 3135 3138 3140 3142 3145 3144 3144 3146 3147 3149 3151 3154 3157 3160 3161 3162 3160 3160 3161 3162 3164 3165 3166 3168 3163
3058 3061 3065 3067 3070 3076 3081 3086 3089 3091 3092 3092 3097 3103 3106 3112 3118 3123 3127 3130 3134 3137 3139 3141 3141 3141 3143 3145 3147 3149 3151 3152 3154 3155 3155 3155 3156 3157 3157 3159 3161 3160 3160 3160
3051 3056 3059 3061 3063 3069 3075 3079 3083 3085 3085 3088 3091 3100 3102 3106 3112 3116 3120 3126 3129 3134 3136 3137 3138 3139 3140 3142 3144 3146 3149 3149 3150 3151 3152 3153 3153 3153 3153 3154 3156 3156 3156 3155
3046 3049 3053 3055 3058 3062 3068 3073 3077 3078 3080 3083 3086 3090 3095 3101 3107 3111 3115 3118 3122 3129 3133 3135 3136 3137 3138 3138 3141 3143 3145 3147 3147 3148 3149 3150 3149 3149 3148 3149 3149 3148 3149 3148
3039 3043 3046 3049 3052 3056 3061 3065 3070 3074 3076 3079 3084 3085 3090 3095 3104 3106 3112 3112 3116 3123 3129 3130 3131 3133 3134 3135 3137 3139 3142 3144 3145 3146 3146 3146 3146 3143 3143 3143 3142 3144 3144 3145
3033 3037 3040 3043 3046 3049 3055 3060 3065 3068 3070 3074 3079 3082 3087 3090 3095 3103 3107 3107 3110 3117 3120 3125 3127 3128 3130 3131 3133 3135 3138 3141 3143 3143 3144 3145 3139 3137 3137 3138 3137 3138 3139 3139
3026 3030 3034 3038 3040 3043 3049 3054 3058 3060 3063 3067 3071 3075 3079 3085 3090 3094 3099 3101 3108 3112 3115 3120 3122 3123 3125 3126 3128 3130 3134 3137 3139 3140 3140 3138 3136 3133 3133 3134 3135 3134 3134 3135
3019 3024 3027 3031 3034 3037 3043 3048 3052 3055 3058 3062 3066 3069 3073 3079 3084 3091 3091 3098 3102 3106 3112 3115 3113 3116 3119 3122 3123 3125 3129 3132 3137 3136 3137 3135 3131 3129 3130 3131 3132 3130 3131 3132
3012 3016 3020 3024 3028 3032 3037 3042 3047 3049 3051 3056 3060 3065 3069 3073 3079 3083 3086 3091 3095 3098 3104 3108 3110 3112 3112 3114 3116 3120 3123 3126 3128 3131 3133 3130 3127 3127 3128 3131 3132 3127 3129 3130
3005 3009 3014 3019 3022 3026 3031 3037 3041 3045 3044 3049 3053 3058 3064 3068 3072 3078 3081 3089 3090 3093 3100 3103 3105 3105 3106 3109 3112 3112 3116 3119 3122 3127 3129 3126 3120 3123 3126 3125 3124 3126 3127 3127
2998 3002 3007 3012 3016 3021 3026 3030 3036 3040 3040 3042 3046 3052 3058 3062 3066 3071 3072 3080 3081 3088 3095 3096 3100 3100 3100 3103 3106 3109 3112 3113 3114 3118 3118 3116 3117 3118 3120 3121 3122 3123 3123 3123
2990 2995 3000 3005 3010 3015 3019 3024 3032 3035 3037 3036 3039 3044 3050 3053 3059 3063 3064 3070 3076 3078 3083 3088 3094 3097 3097 3098 3102 3105 3106 3107 3109 3113 3113 3113 3114 3116 3117 3118 3118 3119 3119 3119
2982 2987 2993 2999 3004 3009 3014 3019 3027 3031 3034 3031 3033 3039 3044 3049 3051 3052 3056 3062 3068 3074 3077 3080 3086 3092 3093 3095 3097 3099 3099 3102 3105 3107 3108 3108 3110 3111 3112 3113 3114 3115 3116 3116
2976 2981 2987 2993 2999 3005 3010 3016 3022 3026 3032 3027 3026 3032 3036 3042 3045 3049 3054 3058 3061 3065 3069 3073 3080 3088 3089 3089 3091 3090 3093 3096 3099 3102 3104 3104 3105 3106 3107 3109 3110 3111 3112 3112
2971 2977 2983 2989 2994 3000 3007 3012 3015 3021 3026 3027 3023 3025 3030 3037 3043 3046 3049 3053 3057 3061 3062 3065 3074 3078 3083 3082 3081 3085 3089 3093 3096 3097 3098 3099 3100 3100 3102 3104 3106 3107 3108 3108
2968 2974 2979 2984 2990 2995 3002 3007 3012 3019 3022 3024 3023 3020 3024 3029 3036 3040 3042 3046 3047 3053 3055 3059 3066 3069 3073 3072 3073 3079 3083 3087 3089 3092 3093 3094 3094 3095 3097 3099 3101 3102 3103 3104
2966 2972 2976 2983 2989 2996 3000 3005 3010 3015 3018 3022 3021 3020 3022 3025 3029 3034 3039 3042 3045 3046 3050 3051 3055 3062 3063 3060 3066 3074 3076 3080 3082 3085 3088 3089 3089 3091 3092 3094 3096 3098 3099 3100
2964 2970 2976 2979 2985 2991 2997 3002 3007 3010 3015 3012 3012 3014 3020 3022 3026 3031 3035 3037 3039 3040 3041 3046 3054 3053 3047 3050 3059 3064 3068 3073 3078 3080 3080 3082 3084 3086 3088 3089 3091 3093 3095 3095
2962 2968 2972 2974 2982 2990 2995 3000 3003 3005 3005 3004 3003 3010 3015 3019 3022 3025 3030 3027 3032 3034 3035 3040 3038 3030 3041 3047 3054 3057 3061 3066 3070 3072 3074 3076 3078 3080 3082 3085 3087 3088 3090 3091
2958 2963 2967 2973 2981 2988 2992 2994 2997 2998 2997 2995 2996 3002 3008 3014 3015 3018 3020 3015 3022 3022 3026 3031 3025 3018 3026 3037 3042 3047 3053 3058 3063 3065 3069 3071 3074 3075 3077 3079 3081 3084 3085 3086
2957 2962 2968 2973 2979 2983 2985 2985 2988 2986 2988 2988 2991 2995 3001 3008 3011 3013 3011 3008 3009 3012 3016 3019 3009 3010 3020 3027 3031 3037 3044 3050 3055 3060 3062 3065 3067 3069 3072 3074 3077 3079 3080 3081
2954 2960 2965 2968 2971 2972 2972 2973 2977 2980 2981 2986 2989 2993 2997 3003 3006 3009 3007 2996 2998 3004 3004 3000 2999 3006 3012 3017 3021 3026 3033 3040 3045 3051 3054 3058 3061 3064 3067 3070 3073 3075 3076 3077
2949 2954 2957 2962 2962 2964 2968 2972 2976 2980 2984 2987 2989 2992 2995 2997 3000 3004 3000 2994 2995 2998 2995 2989 2996 3002 3011 3012 3015 3020 3025 3030 3037 3042 3048 3052 3056 3058 3061 3065 3068 3071 3072 3073
2945 2951 2952 2955 2960 2964 2966 2968 2971 2974 2978 2981 2983 2988 2991 2994 2997 2997 2992 2989 2989 2988 2987 2990 2996 3003 3007 3010 3012 3016 3020 3024 3030 3035 3041 3046 3050 3054 3058 3061 3064 3066 3068 3069
2942 2946 2950 2954 2959 2961 2964 2965 2968 2970 2973 2978 2978 2983 2987 2986 2985 2985 2983 2984 2982 2985 2984 2986 2991 2996 3001 3006 3010 3012 3016 3020 3025 3030 3035 3040 3046 3050 3054 3058 3060 3062 3064 3065
2939 2943 2948 2951 2954 2957 2961 2966 2966 2967 2968 2973 2975 2974 2978 2974 2973 2976 2976 2978 2980 2982 2984 2986 2990 2992 2995 3000 3004 3008 3012 3015 3019 3025 3030 3036 3042 3047 3051 3053 3056 3058 3059 3061